Year,Month,Day,Hour,Minute,Value (Times are PST for temperature in C)
2007,10,11,00,00,9.60
2007,10,11,00,01,9.60
2007,10,11,00,02,9.60
2007,10,11,00,03,9.60
2007,10,11,00,04,9.60
2007,10,11,00,05,9.50
2007,10,11,00,06,9.50
2007,10,11,00,07,9.50
2007,10,11,00,08,9.40
2007,10,11,00,09,9.40
2007,10,11,00,10,9.40
2007,10,11,00,11,9.40
2007,10,11,00,12,9.40
2007,10,11,00,13,9.40
2007,10,11,00,14,9.40
2007,10,11,00,15,9.40
2007,10,11,00,16,9.40
2007,10,11,00,17,9.40
2007,10,11,00,18,9.40
2007,10,11,00,19,9.50
2007,10,11,00,20,9.40
2007,10,11,00,21,9.40
2007,10,11,00,22,9.40
2007,10,11,00,23,9.40
2007,10,11,00,24,9.30
2007,10,11,00,25,9.30
2007,10,11,00,26,9.30
2007,10,11,00,27,9.30
2007,10,11,00,28,9.20
2007,10,11,00,29,9.20
2007,10,11,00,30,9.20
2007,10,11,00,31,9.20
2007,10,11,00,32,9.10
2007,10,11,00,33,9.10
2007,10,11,00,34,9.10
2007,10,11,00,35,9.10
2007,10,11,00,36,9.10
2007,10,11,00,37,9.10
2007,10,11,00,38,9.10
2007,10,11,00,39,9.10
2007,10,11,00,40,9.10
2007,10,11,00,41,9.10
2007,10,11,00,42,9.10
2007,10,11,00,43,9.20
2007,10,11,00,44,9.20
2007,10,11,00,45,9.20
2007,10,11,00,46,9.20
2007,10,11,00,47,9.20
2007,10,11,00,48,9.20
2007,10,11,00,49,9.20
2007,10,11,00,50,9.20
2007,10,11,00,51,9.10
2007,10,11,00,52,9.10
2007,10,11,00,53,9.10
2007,10,11,00,54,9.10
2007,10,11,00,55,9.10
2007,10,11,00,56,9.10
2007,10,11,00,57,9.10
2007,10,11,00,58,9.00
2007,10,11,00,59,9.00
2007,10,11,01,00,9.00
2007,10,11,01,01,9.00
2007,10,11,01,02,9.00
2007,10,11,01,03,9.00
2007,10,11,01,04,9.00
2007,10,11,01,05,9.00
2007,10,11,01,06,9.00
2007,10,11,01,07,9.00
2007,10,11,01,08,9.10
2007,10,11,01,09,9.10
2007,10,11,01,10,9.10
2007,10,11,01,11,9.10
2007,10,11,01,12,9.10
2007,10,11,01,13,9.10
2007,10,11,01,14,9.10
2007,10,11,01,15,9.10
2007,10,11,01,16,9.00
2007,10,11,01,17,9.00
2007,10,11,01,18,9.00
2007,10,11,01,19,8.90
2007,10,11,01,20,8.90
2007,10,11,01,21,8.90
2007,10,11,01,22,8.90
2007,10,11,01,23,8.90
2007,10,11,01,24,8.90
2007,10,11,01,25,8.90
2007,10,11,01,26,8.90
2007,10,11,01,27,8.90
2007,10,11,01,28,8.90
2007,10,11,01,29,8.80
2007,10,11,01,30,8.80
2007,10,11,01,31,8.80
2007,10,11,01,32,8.80
2007,10,11,01,33,8.70
2007,10,11,01,34,8.70
2007,10,11,01,35,8.70
2007,10,11,01,36,8.60
2007,10,11,01,37,8.60
2007,10,11,01,38,8.60
2007,10,11,01,39,8.50
2007,10,11,01,40,8.50
2007,10,11,01,41,8.50
2007,10,11,01,42,8.50
2007,10,11,01,43,8.40
2007,10,11,01,44,8.50
2007,10,11,01,45,8.50
2007,10,11,01,46,8.50
2007,10,11,01,47,8.50
2007,10,11,01,48,8.50
2007,10,11,01,49,8.60
2007,10,11,01,50,8.60
2007,10,11,01,51,8.60
2007,10,11,01,52,8.60
2007,10,11,01,53,8.60
2007,10,11,01,54,8.60
2007,10,11,01,55,8.60
2007,10,11,01,56,8.60
2007,10,11,01,57,8.60
2007,10,11,01,58,8.60
2007,10,11,01,59,8.60
2007,10,11,02,00,8.60
2007,10,11,02,01,8.60
2007,10,11,02,02,8.60
2007,10,11,02,03,8.50
2007,10,11,02,04,8.50
2007,10,11,02,05,8.50
2007,10,11,02,06,8.50
2007,10,11,02,07,8.50
2007,10,11,02,08,8.50
2007,10,11,02,09,8.50
2007,10,11,02,10,8.50
2007,10,11,02,11,8.50
2007,10,11,02,12,8.50
2007,10,11,02,13,8.50
2007,10,11,02,14,8.40
2007,10,11,02,15,8.40
2007,10,11,02,16,8.40
2007,10,11,02,17,8.40
2007,10,11,02,18,8.40
2007,10,11,02,19,8.40
2007,10,11,02,20,8.40
2007,10,11,02,21,8.40
2007,10,11,02,22,8.40
2007,10,11,02,23,8.40
2007,10,11,02,24,8.40
2007,10,11,02,25,8.30
2007,10,11,02,26,8.30
2007,10,11,02,27,8.30
2007,10,11,02,28,8.30
2007,10,11,02,29,8.30
2007,10,11,02,30,8.30
2007,10,11,02,31,8.30
2007,10,11,02,32,8.30
2007,10,11,02,33,8.30
2007,10,11,02,34,8.30
2007,10,11,02,35,8.20
2007,10,11,02,36,8.20
2007,10,11,02,37,8.20
2007,10,11,02,38,8.20
2007,10,11,02,39,8.20
2007,10,11,02,40,8.20
2007,10,11,02,41,8.20
2007,10,11,02,42,8.10
2007,10,11,02,43,8.10
2007,10,11,02,44,8.10
2007,10,11,02,45,8.10
2007,10,11,02,46,8.10
2007,10,11,02,47,8.10
2007,10,11,02,48,8.00
2007,10,11,02,49,8.00
2007,10,11,02,50,8.00
2007,10,11,02,51,8.00
2007,10,11,02,52,7.90
2007,10,11,02,53,7.90
2007,10,11,02,54,7.90
2007,10,11,02,55,7.90
2007,10,11,02,56,7.90
2007,10,11,02,57,7.90
2007,10,11,02,58,7.80
2007,10,11,02,59,7.80
2007,10,11,03,00,7.80
2007,10,11,03,01,7.80
2007,10,11,03,02,7.80
2007,10,11,03,03,7.80
2007,10,11,03,04,7.80
2007,10,11,03,05,7.80
2007,10,11,03,06,7.80
2007,10,11,03,07,7.80
2007,10,11,03,08,7.80
2007,10,11,03,09,7.80
2007,10,11,03,10,7.80
2007,10,11,03,11,7.80
2007,10,11,03,12,7.70
2007,10,11,03,13,7.70
2007,10,11,03,14,7.70
2007,10,11,03,15,7.70
2007,10,11,03,16,7.70
2007,10,11,03,17,7.70
2007,10,11,03,18,7.70
2007,10,11,03,19,7.70
2007,10,11,03,20,7.60
2007,10,11,03,21,7.60
2007,10,11,03,22,7.60
2007,10,11,03,23,7.60
2007,10,11,03,24,7.60
2007,10,11,03,25,7.60
2007,10,11,03,26,7.50
2007,10,11,03,27,7.50
2007,10,11,03,28,7.50
2007,10,11,03,29,7.40
2007,10,11,03,30,7.40
2007,10,11,03,31,7.40
2007,10,11,03,32,7.40
2007,10,11,03,33,7.40
2007,10,11,03,34,7.30
2007,10,11,03,35,7.30
2007,10,11,03,36,7.30
2007,10,11,03,37,7.30
2007,10,11,03,38,7.30
2007,10,11,03,39,7.30
2007,10,11,03,40,7.30
2007,10,11,03,41,7.30
2007,10,11,03,42,7.30
2007,10,11,03,43,7.30
2007,10,11,03,44,7.30
2007,10,11,03,45,7.20
2007,10,11,03,46,7.20
2007,10,11,03,47,7.20
2007,10,11,03,48,7.20
2007,10,11,03,49,7.20
2007,10,11,03,50,7.20
2007,10,11,03,51,7.20
2007,10,11,03,52,7.20
2007,10,11,03,53,7.20
2007,10,11,03,54,7.20
2007,10,11,03,55,7.20
2007,10,11,03,56,7.10
2007,10,11,03,57,7.10
2007,10,11,03,58,7.10
2007,10,11,03,59,7.10
2007,10,11,04,00,7.10
2007,10,11,04,01,7.00
2007,10,11,04,02,7.00
2007,10,11,04,03,7.00
2007,10,11,04,04,7.00
2007,10,11,04,05,7.00
2007,10,11,04,06,7.00
2007,10,11,04,07,7.00
2007,10,11,04,08,6.90
2007,10,11,04,09,6.90
2007,10,11,04,10,6.90
2007,10,11,04,11,6.90
2007,10,11,04,12,6.90
2007,10,11,04,13,6.80
2007,10,11,04,14,6.80
2007,10,11,04,15,6.80
2007,10,11,04,16,6.80
2007,10,11,04,17,6.80
2007,10,11,04,18,6.70
2007,10,11,04,19,6.70
2007,10,11,04,20,6.70
2007,10,11,04,21,6.70
2007,10,11,04,22,6.70
2007,10,11,04,23,6.70
2007,10,11,04,24,6.60
2007,10,11,04,25,6.60
2007,10,11,04,26,6.60
2007,10,11,04,27,6.60
2007,10,11,04,28,6.60
2007,10,11,04,29,6.50
2007,10,11,04,30,6.50
2007,10,11,04,31,6.50
2007,10,11,04,32,6.40
2007,10,11,04,33,6.40
2007,10,11,04,34,6.40
2007,10,11,04,35,6.40
2007,10,11,04,36,6.40
2007,10,11,04,37,6.40
2007,10,11,04,38,6.40
2007,10,11,04,39,6.30
2007,10,11,04,40,6.30
2007,10,11,04,41,6.30
2007,10,11,04,42,6.30
2007,10,11,04,43,6.30
2007,10,11,04,44,6.30
2007,10,11,04,45,6.30
2007,10,11,04,46,6.30
2007,10,11,04,47,6.30
2007,10,11,04,48,6.30
2007,10,11,04,49,6.30
2007,10,11,04,50,6.20
2007,10,11,04,51,6.20
2007,10,11,04,52,6.20
2007,10,11,04,53,6.20
2007,10,11,04,54,6.20
2007,10,11,04,55,6.20
2007,10,11,04,56,6.10
2007,10,11,04,57,6.10
2007,10,11,04,58,6.10
2007,10,11,04,59,6.10
2007,10,11,05,00,6.10
2007,10,11,05,01,6.10
2007,10,11,05,02,6.10
2007,10,11,05,03,6.10
2007,10,11,05,04,6.00
2007,10,11,05,05,6.00
2007,10,11,05,06,6.00
2007,10,11,05,07,6.00
2007,10,11,05,08,6.00
2007,10,11,05,09,6.00
2007,10,11,05,10,6.00
2007,10,11,05,11,6.00
2007,10,11,05,12,6.00
2007,10,11,05,13,6.10
2007,10,11,05,14,6.10
2007,10,11,05,15,6.10
2007,10,11,05,16,6.10
2007,10,11,05,17,6.10
2007,10,11,05,18,6.10
2007,10,11,05,19,6.10
2007,10,11,05,20,6.20
2007,10,11,05,21,6.20
2007,10,11,05,22,6.20
2007,10,11,05,23,6.20
2007,10,11,05,24,6.20
2007,10,11,05,25,6.20
2007,10,11,05,26,6.20
2007,10,11,05,27,6.20
2007,10,11,05,28,6.20
2007,10,11,05,29,6.30
2007,10,11,05,30,6.30
2007,10,11,05,31,6.30
2007,10,11,05,32,6.30
2007,10,11,05,33,6.30
2007,10,11,05,34,6.40
2007,10,11,05,35,6.40
2007,10,11,05,36,6.40
2007,10,11,05,37,6.40
2007,10,11,05,38,6.40
2007,10,11,05,39,6.40
2007,10,11,05,40,6.40
2007,10,11,05,41,6.40
2007,10,11,05,42,6.40
2007,10,11,05,43,6.40
2007,10,11,05,44,6.50
2007,10,11,05,45,6.50
2007,10,11,05,46,6.50
2007,10,11,05,47,6.50
2007,10,11,05,48,6.50
2007,10,11,05,49,6.50
2007,10,11,05,50,6.60
2007,10,11,05,51,6.60
2007,10,11,05,52,6.60
2007,10,11,05,53,6.60
2007,10,11,05,54,6.60
2007,10,11,05,55,6.60
2007,10,11,05,56,6.60
2007,10,11,05,57,6.60
2007,10,11,05,58,6.70
2007,10,11,05,59,6.70
2007,10,11,06,00,6.70
2007,10,11,06,01,6.70
2007,10,11,06,02,6.70
2007,10,11,06,03,6.70
2007,10,11,06,04,6.70
2007,10,11,06,05,6.70
2007,10,11,06,06,6.80
2007,10,11,06,07,6.80
2007,10,11,06,08,6.80
2007,10,11,06,09,6.80
2007,10,11,06,10,6.80
2007,10,11,06,11,6.90
2007,10,11,06,12,6.90
2007,10,11,06,13,6.90
2007,10,11,06,14,7.00
2007,10,11,06,15,7.10
2007,10,11,06,16,7.10
2007,10,11,06,17,7.20
2007,10,11,06,18,7.20
2007,10,11,06,19,7.20
2007,10,11,06,20,7.20
2007,10,11,06,21,7.20
2007,10,11,06,22,7.20
2007,10,11,06,23,7.30
2007,10,11,06,24,7.30
2007,10,11,06,25,7.30
2007,10,11,06,26,7.30
2007,10,11,06,27,7.40
2007,10,11,06,28,7.40
2007,10,11,06,29,7.40
2007,10,11,06,30,7.40
2007,10,11,06,31,7.40
2007,10,11,06,32,7.40
2007,10,11,06,33,7.50
2007,10,11,06,34,7.50
2007,10,11,06,35,7.50
2007,10,11,06,36,7.50
2007,10,11,06,37,7.60
2007,10,11,06,38,7.60
2007,10,11,06,39,7.60
2007,10,11,06,40,7.60
2007,10,11,06,41,7.60
2007,10,11,06,42,7.60
2007,10,11,06,43,7.60
2007,10,11,06,44,7.60
2007,10,11,06,45,7.70
2007,10,11,06,46,7.70
2007,10,11,06,47,7.70
2007,10,11,06,48,7.70
2007,10,11,06,49,7.70
2007,10,11,06,50,7.70
2007,10,11,06,51,7.70
2007,10,11,06,52,7.70
2007,10,11,06,53,7.70
2007,10,11,06,54,7.70
2007,10,11,06,55,7.80
2007,10,11,06,56,7.80
2007,10,11,06,57,7.80
2007,10,11,06,58,7.80
2007,10,11,06,59,7.80
2007,10,11,07,00,7.80
2007,10,11,07,01,7.80
2007,10,11,07,02,7.80
2007,10,11,07,03,7.80
2007,10,11,07,04,7.80
2007,10,11,07,05,7.90
2007,10,11,07,06,7.90
2007,10,11,07,07,7.90
2007,10,11,07,08,7.90
2007,10,11,07,09,8.00
2007,10,11,07,10,8.00
2007,10,11,07,11,8.00
2007,10,11,07,12,8.10
2007,10,11,07,13,8.10
2007,10,11,07,14,8.10
2007,10,11,07,15,8.10
2007,10,11,07,16,8.20
2007,10,11,07,17,8.20
2007,10,11,07,18,8.20
2007,10,11,07,19,8.20
2007,10,11,07,20,8.30
2007,10,11,07,21,8.30
2007,10,11,07,22,8.30
2007,10,11,07,23,8.40
2007,10,11,07,24,8.40
2007,10,11,07,25,8.50
2007,10,11,07,26,8.50
2007,10,11,07,27,8.50
2007,10,11,07,28,8.60
2007,10,11,07,29,8.60
2007,10,11,07,30,8.60
2007,10,11,07,31,8.60
2007,10,11,07,32,8.60
2007,10,11,07,33,8.60
2007,10,11,07,34,8.60
2007,10,11,07,35,8.60
2007,10,11,07,36,8.70
2007,10,11,07,37,8.70
2007,10,11,07,38,8.70
2007,10,11,07,39,8.70
2007,10,11,07,40,8.70
2007,10,11,07,41,8.70
2007,10,11,07,42,8.70
2007,10,11,07,43,8.70
2007,10,11,07,44,8.70
2007,10,11,07,45,8.70
2007,10,11,07,46,8.70
2007,10,11,07,47,8.70
2007,10,11,07,48,8.70
2007,10,11,07,49,8.70
2007,10,11,07,50,8.70
2007,10,11,07,51,8.70
2007,10,11,07,52,8.70
2007,10,11,07,53,8.70
2007,10,11,07,54,8.70
2007,10,11,07,55,8.70
2007,10,11,07,56,8.70
2007,10,11,07,57,8.70
2007,10,11,07,58,8.70
2007,10,11,07,59,8.70
2007,10,11,08,00,8.70
2007,10,11,08,01,8.70
2007,10,11,08,02,8.70
2007,10,11,08,03,8.70
2007,10,11,08,04,8.70
2007,10,11,08,05,8.70
2007,10,11,08,06,8.70
2007,10,11,08,07,8.70
2007,10,11,08,08,8.70
2007,10,11,08,09,8.70
2007,10,11,08,10,8.70
2007,10,11,08,11,8.70
2007,10,11,08,12,8.70
2007,10,11,08,13,8.70
2007,10,11,08,14,8.70
2007,10,11,08,15,8.70
2007,10,11,08,16,8.70
2007,10,11,08,17,8.70
2007,10,11,08,18,8.70
2007,10,11,08,19,8.70
2007,10,11,08,20,8.70
2007,10,11,08,21,8.70
2007,10,11,08,22,8.70
2007,10,11,08,23,8.70
2007,10,11,08,24,8.70
2007,10,11,08,25,8.70
2007,10,11,08,26,8.70
2007,10,11,08,27,8.70
2007,10,11,08,28,8.70
2007,10,11,08,29,8.70
2007,10,11,08,30,8.70
2007,10,11,08,31,8.70
2007,10,11,08,32,8.70
2007,10,11,08,33,8.70
2007,10,11,08,34,8.80
2007,10,11,08,35,8.80
2007,10,11,08,36,8.80
2007,10,11,08,37,8.80
2007,10,11,08,38,8.80
2007,10,11,08,39,8.80
2007,10,11,08,40,8.80
2007,10,11,08,41,8.80
2007,10,11,08,42,8.80
2007,10,11,08,43,8.80
2007,10,11,08,44,8.90
2007,10,11,08,45,8.90
2007,10,11,08,46,8.90
2007,10,11,08,47,8.90
2007,10,11,08,48,8.90
2007,10,11,08,49,9.00
2007,10,11,08,50,9.00
2007,10,11,08,51,9.00
2007,10,11,08,52,9.00
2007,10,11,08,53,9.10
2007,10,11,08,54,9.10
2007,10,11,08,55,9.10
2007,10,11,08,56,9.10
2007,10,11,08,57,9.10
2007,10,11,08,58,9.10
2007,10,11,08,59,9.10
2007,10,11,09,00,9.20
2007,10,11,09,01,9.20
2007,10,11,09,02,9.20
2007,10,11,09,03,9.20
2007,10,11,09,04,9.20
2007,10,11,09,05,9.20
2007,10,11,09,06,9.20
2007,10,11,09,07,9.20
2007,10,11,09,08,9.20
2007,10,11,09,09,9.30
2007,10,11,09,10,9.30
2007,10,11,09,11,9.30
2007,10,11,09,12,9.30
2007,10,11,09,13,9.30
2007,10,11,09,14,9.30
2007,10,11,09,15,9.40
2007,10,11,09,16,9.40
2007,10,11,09,17,9.40
2007,10,11,09,18,9.40
2007,10,11,09,19,9.40
2007,10,11,09,20,9.50
2007,10,11,09,21,9.50
2007,10,11,09,22,9.50
2007,10,11,09,23,9.60
2007,10,11,09,24,9.60
2007,10,11,09,25,9.60
2007,10,11,09,26,9.60
2007,10,11,09,27,9.60
2007,10,11,09,28,9.60
2007,10,11,09,29,9.70
2007,10,11,09,30,9.70
2007,10,11,09,31,9.70
2007,10,11,09,32,9.70
2007,10,11,09,33,9.70
2007,10,11,09,34,9.70
2007,10,11,09,35,9.80
2007,10,11,09,36,9.80
2007,10,11,09,37,9.80
2007,10,11,09,38,9.80
2007,10,11,09,39,9.80
2007,10,11,09,40,9.80
2007,10,11,09,41,9.80
2007,10,11,09,42,9.90
2007,10,11,09,43,9.90
2007,10,11,09,44,9.90
2007,10,11,09,45,9.90
2007,10,11,09,46,9.90
2007,10,11,09,47,9.90
2007,10,11,09,48,9.90
2007,10,11,09,49,9.90
2007,10,11,09,50,9.90
2007,10,11,09,51,9.90
2007,10,11,09,52,9.90
2007,10,11,09,53,9.90
2007,10,11,09,54,9.90
2007,10,11,09,55,9.90
2007,10,11,09,56,9.90
2007,10,11,09,57,9.90
2007,10,11,09,58,9.90
2007,10,11,09,59,9.90
2007,10,11,10,00,10.00
2007,10,11,10,01,10.00
2007,10,11,10,02,10.10
2007,10,11,10,03,10.10
2007,10,11,10,04,10.10
2007,10,11,10,05,10.20
2007,10,11,10,06,10.20
2007,10,11,10,07,10.20
2007,10,11,10,08,10.20
2007,10,11,10,09,10.20
2007,10,11,10,10,10.20
2007,10,11,10,11,10.30
2007,10,11,10,12,10.30
2007,10,11,10,13,10.30
2007,10,11,10,14,10.30
2007,10,11,10,15,10.40
2007,10,11,10,16,10.40
2007,10,11,10,17,10.40
2007,10,11,10,18,10.40
2007,10,11,10,19,10.50
2007,10,11,10,20,10.50
2007,10,11,10,21,10.60
2007,10,11,10,22,10.60
2007,10,11,10,23,10.60
2007,10,11,10,24,10.60
2007,10,11,10,25,10.60
2007,10,11,10,26,10.60
2007,10,11,10,27,10.60
2007,10,11,10,28,10.60
2007,10,11,10,29,10.60
2007,10,11,10,30,10.60
2007,10,11,10,31,10.60
2007,10,11,10,32,10.70
2007,10,11,10,33,10.70
2007,10,11,10,34,10.70
2007,10,11,10,35,10.70
2007,10,11,10,36,10.70
2007,10,11,10,37,10.70
2007,10,11,10,38,10.70
2007,10,11,10,39,10.80
2007,10,11,10,40,10.80
2007,10,11,10,41,10.80
2007,10,11,10,42,10.80
2007,10,11,10,43,10.80
2007,10,11,10,44,10.90
2007,10,11,10,45,10.90
2007,10,11,10,46,11.00
2007,10,11,10,47,11.00
2007,10,11,10,48,11.10
2007,10,11,10,49,11.10
2007,10,11,10,50,11.20
2007,10,11,10,51,11.20
2007,10,11,10,52,11.30
2007,10,11,10,53,11.30
2007,10,11,10,54,11.40
2007,10,11,10,55,11.40
2007,10,11,10,56,11.50
2007,10,11,10,57,11.60
2007,10,11,10,58,11.60
2007,10,11,10,59,11.70
2007,10,11,11,00,11.80
2007,10,11,11,01,11.80
2007,10,11,11,02,11.80
2007,10,11,11,03,11.90
2007,10,11,11,04,11.90
2007,10,11,11,05,12.00
2007,10,11,11,06,11.90
2007,10,11,11,07,11.90
2007,10,11,11,08,11.90
2007,10,11,11,09,11.90
2007,10,11,11,10,11.90
2007,10,11,11,11,11.90
2007,10,11,11,12,11.90
2007,10,11,11,13,11.80
2007,10,11,11,14,11.80
2007,10,11,11,15,11.70
2007,10,11,11,16,11.70
2007,10,11,11,17,11.70
2007,10,11,11,18,11.70
2007,10,11,11,19,11.70
2007,10,11,11,20,11.60
2007,10,11,11,21,11.60
2007,10,11,11,22,11.60
2007,10,11,11,23,11.60
2007,10,11,11,24,11.60
2007,10,11,11,25,11.60
2007,10,11,11,26,11.60
2007,10,11,11,27,11.60
2007,10,11,11,28,11.70
2007,10,11,11,29,11.70
2007,10,11,11,30,11.70
2007,10,11,11,31,11.70
2007,10,11,11,32,11.80
2007,10,11,11,33,11.80
2007,10,11,11,34,11.80
2007,10,11,11,35,11.80
2007,10,11,11,36,11.70
2007,10,11,11,37,11.70
2007,10,11,11,38,11.70
2007,10,11,11,39,11.70
2007,10,11,11,40,11.70
2007,10,11,11,41,11.70
2007,10,11,11,42,11.80
2007,10,11,11,43,11.80
2007,10,11,11,44,11.80
2007,10,11,11,45,11.80
2007,10,11,11,46,11.80
2007,10,11,11,47,11.80
2007,10,11,11,48,11.80
2007,10,11,11,49,11.90
2007,10,11,11,50,11.90
2007,10,11,11,51,11.90
2007,10,11,11,52,12.00
2007,10,11,11,53,12.00
2007,10,11,11,54,12.10
2007,10,11,11,55,12.10
2007,10,11,11,56,12.10
2007,10,11,11,57,12.10
2007,10,11,11,58,12.10
2007,10,11,11,59,12.10
2007,10,11,12,00,12.10
2007,10,11,12,01,12.10
2007,10,11,12,02,12.10
2007,10,11,12,03,12.10
2007,10,11,12,04,12.10
2007,10,11,12,05,12.10
2007,10,11,12,06,12.10
2007,10,11,12,07,12.10
2007,10,11,12,08,12.10
2007,10,11,12,09,12.10
2007,10,11,12,10,12.20
2007,10,11,12,11,12.20
2007,10,11,12,12,12.20
2007,10,11,12,13,12.20
2007,10,11,12,14,12.30
2007,10,11,12,15,12.30
2007,10,11,12,16,12.30
2007,10,11,12,17,12.30
2007,10,11,12,18,12.30
2007,10,11,12,19,12.40
2007,10,11,12,20,12.40
2007,10,11,12,21,12.40
2007,10,11,12,22,12.50
2007,10,11,12,23,12.50
2007,10,11,12,24,12.50
2007,10,11,12,25,12.60
2007,10,11,12,26,12.60
2007,10,11,12,27,12.50
2007,10,11,12,28,12.50
2007,10,11,12,29,12.40
2007,10,11,12,30,12.40
2007,10,11,12,31,12.40
2007,10,11,12,32,12.30
2007,10,11,12,33,12.30
2007,10,11,12,34,12.30
2007,10,11,12,35,12.30
2007,10,11,12,36,12.30
2007,10,11,12,37,12.30
2007,10,11,12,38,12.30
2007,10,11,12,39,12.30
2007,10,11,12,40,12.20
2007,10,11,12,41,12.20
2007,10,11,12,42,12.20
2007,10,11,12,43,12.30
2007,10,11,12,44,12.30
2007,10,11,12,45,12.30
2007,10,11,12,46,12.30
2007,10,11,12,47,12.30
2007,10,11,12,48,12.30
2007,10,11,12,49,12.30
2007,10,11,12,50,12.40
2007,10,11,12,51,12.40
2007,10,11,12,52,12.30
2007,10,11,12,53,12.40
2007,10,11,12,54,12.40
2007,10,11,12,55,12.30
2007,10,11,12,56,12.30
2007,10,11,12,57,12.30
2007,10,11,12,58,12.30
2007,10,11,12,59,12.30
2007,10,11,13,00,12.30
2007,10,11,13,01,12.30
2007,10,11,13,02,12.30
2007,10,11,13,03,12.40
2007,10,11,13,04,12.40
2007,10,11,13,05,12.40
2007,10,11,13,06,12.40
2007,10,11,13,07,12.40
2007,10,11,13,08,12.40
2007,10,11,13,09,12.40
2007,10,11,13,10,12.40
2007,10,11,13,11,12.40
2007,10,11,13,12,12.40
2007,10,11,13,13,12.40
2007,10,11,13,14,12.40
2007,10,11,13,15,12.40
2007,10,11,13,16,12.50
2007,10,11,13,17,12.50
2007,10,11,13,18,12.60
2007,10,11,13,19,12.60
2007,10,11,13,20,12.60
2007,10,11,13,21,12.60
2007,10,11,13,22,12.60
2007,10,11,13,23,12.60
2007,10,11,13,24,12.60
2007,10,11,13,25,12.70
2007,10,11,13,26,12.70
2007,10,11,13,27,12.70
2007,10,11,13,28,12.70
2007,10,11,13,29,12.70
2007,10,11,13,30,12.70
2007,10,11,13,31,12.70
2007,10,11,13,32,12.80
2007,10,11,13,33,12.80
2007,10,11,13,34,12.80
2007,10,11,13,35,12.80
2007,10,11,13,36,12.80
2007,10,11,13,37,12.80
2007,10,11,13,38,12.90
2007,10,11,13,39,12.90
2007,10,11,13,40,12.90
2007,10,11,13,41,12.90
2007,10,11,13,42,12.90
2007,10,11,13,43,12.90
2007,10,11,13,44,12.90
2007,10,11,13,45,12.90
2007,10,11,13,46,13.00
2007,10,11,13,47,13.00
2007,10,11,13,48,13.00
2007,10,11,13,49,13.10
2007,10,11,13,50,13.10
2007,10,11,13,51,13.10
2007,10,11,13,52,13.10
2007,10,11,13,53,13.10
2007,10,11,13,54,13.10
2007,10,11,13,55,13.10
2007,10,11,13,56,13.10
2007,10,11,13,57,13.10
2007,10,11,13,58,13.10
2007,10,11,13,59,13.10
2007,10,11,14,00,13.20
2007,10,11,14,01,13.20
2007,10,11,14,02,13.20
2007,10,11,14,03,13.20
2007,10,11,14,04,13.20
2007,10,11,14,05,13.20
2007,10,11,14,06,13.20
2007,10,11,14,07,13.20
2007,10,11,14,08,13.30
2007,10,11,14,09,13.30
2007,10,11,14,10,13.30
2007,10,11,14,11,13.30
2007,10,11,14,12,13.30
2007,10,11,14,13,13.30
2007,10,11,14,14,13.30
2007,10,11,14,15,13.30
2007,10,11,14,16,13.20
2007,10,11,14,17,13.20
2007,10,11,14,18,13.20
2007,10,11,14,19,13.20
2007,10,11,14,20,13.20
2007,10,11,14,21,13.10
2007,10,11,14,22,13.10
2007,10,11,14,23,13.20
2007,10,11,14,24,13.20
2007,10,11,14,25,13.20
2007,10,11,14,26,13.20
2007,10,11,14,27,13.20
2007,10,11,14,28,13.20
2007,10,11,14,29,13.10
2007,10,11,14,30,13.10
2007,10,11,14,31,13.10
2007,10,11,14,32,13.10
2007,10,11,14,33,13.10
2007,10,11,14,34,13.10
2007,10,11,14,35,13.10
2007,10,11,14,36,13.10
2007,10,11,14,37,13.20
2007,10,11,14,38,13.20
2007,10,11,14,39,13.20
2007,10,11,14,40,13.20
2007,10,11,14,41,13.30
2007,10,11,14,42,13.30
2007,10,11,14,43,13.30
2007,10,11,14,44,13.30
2007,10,11,14,45,13.30
2007,10,11,14,46,13.30
2007,10,11,14,47,13.30
2007,10,11,14,48,13.30
2007,10,11,14,49,13.30
2007,10,11,14,50,13.30
2007,10,11,14,51,13.40
2007,10,11,14,52,13.30
2007,10,11,14,53,13.30
2007,10,11,14,54,13.30
2007,10,11,14,55,13.30
2007,10,11,14,56,13.20
2007,10,11,14,57,13.20
2007,10,11,14,58,13.20
2007,10,11,14,59,13.20
2007,10,11,15,00,13.20
2007,10,11,15,01,13.20
2007,10,11,15,02,13.30
2007,10,11,15,03,13.30
2007,10,11,15,04,13.30
2007,10,11,15,05,13.30
2007,10,11,15,06,13.30
2007,10,11,15,07,13.30
2007,10,11,15,08,13.20
2007,10,11,15,09,13.30
2007,10,11,15,10,13.30
2007,10,11,15,11,13.30
2007,10,11,15,12,13.30
2007,10,11,15,13,13.40
2007,10,11,15,14,13.40
2007,10,11,15,15,13.40
2007,10,11,15,16,13.50
2007,10,11,15,17,13.50
2007,10,11,15,18,13.50
2007,10,11,15,19,13.60
2007,10,11,15,20,13.60
2007,10,11,15,21,13.60
2007,10,11,15,22,13.60
2007,10,11,15,23,13.60
2007,10,11,15,24,13.60
2007,10,11,15,25,13.60
2007,10,11,15,26,13.60
2007,10,11,15,27,13.60
2007,10,11,15,28,13.50
2007,10,11,15,29,13.60
2007,10,11,15,30,13.60
2007,10,11,15,31,13.60
2007,10,11,15,32,13.60
2007,10,11,15,33,13.60
2007,10,11,15,34,13.60
2007,10,11,15,35,13.50
2007,10,11,15,36,13.50
2007,10,11,15,37,13.40
2007,10,11,15,38,13.40
2007,10,11,15,39,13.40
2007,10,11,15,40,13.40
2007,10,11,15,41,13.40
2007,10,11,15,42,13.40
2007,10,11,15,43,13.40
2007,10,11,15,44,13.40
2007,10,11,15,45,13.40
2007,10,11,15,46,13.40
2007,10,11,15,47,13.40
2007,10,11,15,48,13.40
2007,10,11,15,49,13.40
2007,10,11,15,50,13.30
2007,10,11,15,51,13.30
2007,10,11,15,52,13.30
2007,10,11,15,53,13.30
2007,10,11,15,54,13.30
2007,10,11,15,55,13.30
2007,10,11,15,56,13.30
2007,10,11,15,57,13.30
2007,10,11,15,58,13.30
2007,10,11,15,59,13.30
2007,10,11,16,00,13.30
2007,10,11,16,01,13.30
2007,10,11,16,02,13.30
2007,10,11,16,03,13.30
2007,10,11,16,04,13.30
2007,10,11,16,05,13.30
2007,10,11,16,06,13.20
2007,10,11,16,07,13.20
2007,10,11,16,08,13.20
2007,10,11,16,09,13.20
2007,10,11,16,10,13.20
2007,10,11,16,11,13.20
2007,10,11,16,12,13.20
2007,10,11,16,13,13.20
2007,10,11,16,14,13.20
2007,10,11,16,15,13.20
2007,10,11,16,16,13.20
2007,10,11,16,17,13.20
2007,10,11,16,18,13.20
2007,10,11,16,19,13.20
2007,10,11,16,20,13.20
2007,10,11,16,21,13.20
2007,10,11,16,22,13.20
2007,10,11,16,23,13.10
2007,10,11,16,24,13.10
2007,10,11,16,25,13.10
2007,10,11,16,26,13.10
2007,10,11,16,27,13.10
2007,10,11,16,28,13.10
2007,10,11,16,29,13.10
2007,10,11,16,30,13.20
2007,10,11,16,31,13.20
2007,10,11,16,32,13.20
2007,10,11,16,33,13.20
2007,10,11,16,34,13.20
2007,10,11,16,35,13.20
2007,10,11,16,36,13.20
2007,10,11,16,37,13.20
2007,10,11,16,38,13.20
2007,10,11,16,39,13.20
2007,10,11,16,40,13.20
2007,10,11,16,41,13.20
2007,10,11,16,42,13.20
2007,10,11,16,43,13.20
2007,10,11,16,44,13.10
2007,10,11,16,45,13.10
2007,10,11,16,46,13.20
2007,10,11,16,47,13.20
2007,10,11,16,48,13.20
2007,10,11,16,49,13.20
2007,10,11,16,50,13.20
2007,10,11,16,51,13.20
2007,10,11,16,52,13.20
2007,10,11,16,53,13.10
2007,10,11,16,54,13.10
2007,10,11,16,55,13.10
2007,10,11,16,56,13.00
2007,10,11,16,57,13.00
2007,10,11,16,58,13.00
2007,10,11,16,59,12.90
2007,10,11,17,00,12.90
2007,10,11,17,01,12.90
2007,10,11,17,02,12.90
2007,10,11,17,03,12.90
2007,10,11,17,04,12.80
2007,10,11,17,05,12.80
2007,10,11,17,06,12.90
2007,10,11,17,07,12.80
2007,10,11,17,08,12.80
2007,10,11,17,09,12.80
2007,10,11,17,10,12.80
2007,10,11,17,11,12.80
2007,10,11,17,12,12.80
2007,10,11,17,13,12.80
2007,10,11,17,14,12.80
2007,10,11,17,15,12.90
2007,10,11,17,16,12.90
2007,10,11,17,17,12.90
2007,10,11,17,18,12.90
2007,10,11,17,19,12.90
2007,10,11,17,20,12.90
2007,10,11,17,21,12.90
2007,10,11,17,22,12.90
2007,10,11,17,23,12.90
2007,10,11,17,24,12.90
2007,10,11,17,25,12.80
2007,10,11,17,26,12.80
2007,10,11,17,27,12.80
2007,10,11,17,28,12.80
2007,10,11,17,29,12.80
2007,10,11,17,30,12.80
2007,10,11,17,31,12.80
2007,10,11,17,32,12.80
2007,10,11,17,33,12.80
2007,10,11,17,34,12.80
2007,10,11,17,35,12.70
2007,10,11,17,36,12.70
2007,10,11,17,37,12.70
2007,10,11,17,38,12.70
2007,10,11,17,39,12.70
2007,10,11,17,40,12.70
2007,10,11,17,41,12.60
2007,10,11,17,42,12.60
2007,10,11,17,43,12.60
2007,10,11,17,44,12.60
2007,10,11,17,45,12.60